This is the latest recevied weather packets stored in our database for station/object SQ7IQO. If no packets are shown the sender has not sent any weather packets the latest 10 day(s).
| Time | Temp. | Humidity | Pressure | Rain* | Wind** | Luminosity | Snow |
|---|---|---|---|---|---|---|---|
| 1787999861 | 21.67° C | 74% | 1015.3 hPa | 0 mm | 1.34 m/s, ° | - | - |
| 1787999801 | 21.67° C | 73% | 1070.5 hPa | 0 mm | 0.45 m/s, ° | - | - |
| 1787999741 | 21.67° C | 74% | 1015.2 hPa | 0 mm | 0.45 m/s, ° | - | - |
| 1787999681 | 21.67° C | 73% | 1015.2 hPa | 0 mm | 0.45 m/s, ° | - | - |
| 1787999621 | 21.67° C | 75% | 1015.2 hPa | 0 mm | 0.89 m/s, ° | - | - |
| 1787999561 | 21.11° C | 76% | 1015.2 hPa | 0 mm | 0.45 m/s, ° | - | - |
| 1787999501 | 21.11° C | 74% | 1015.2 hPa | 0 mm | 1.79 m/s, ° | - | - |
| 1787999441 | 21.67° C | 75% | 1015.2 hPa | 0 mm | 1.34 m/s, ° | - | - |
| 1787999381 | 21.67° C | 77% | 1015.2 hPa | 0 mm | 1.34 m/s, ° | - | - |
| 1787999321 | 21.11° C | 76% | 1015.2 hPa | 0 mm | 0 m/s | - | - |
| 1787999261 | 21.67° C | 77% | 1015.1 hPa | 0 mm | 1.34 m/s, ° | - | - |
| 1787999201 | 21.11° C | 76% | 1015.2 hPa | 0 mm | 0.89 m/s, ° | - | - |
| 1787999141 | 21.67° C | 74% | 1015.2 hPa | 0 mm | 0.89 m/s, ° | - | - |
| 1787999081 | 21.67° C | 76% | 1008.9 hPa | 0 mm | 0 m/s | - | - |
| 1787999021 | 21.67° C | 77% | 1015.2 hPa | 0 mm | 0.45 m/s, ° | - | - |
| 1787998962 | 21.67° C | 77% | 1015.1 hPa | 0 mm | 0.89 m/s, ° | - | - |
| 1787998901 | 21.67° C | 77% | 1015.1 hPa | 0 mm | 0.89 m/s, ° | - | - |
| 1787998841 | 21.67° C | 78% | 1015.1 hPa | 0 mm | 0.45 m/s, ° | - | - |
| 1787998781 | 21.11° C | 78% | 1015.1 hPa | 0 mm | 0 m/s | - | - |
| 1787998721 | 21.11° C | 78% | 1015.2 hPa | 0 mm | 0 m/s | - | - |
| 1787998661 | 21.11° C | 79% | 1015.2 hPa | 0 mm | 0.89 m/s, ° | - | - |
| 1787998601 | 21.11° C | 78% | 1015.1 hPa | 0 mm | 0.89 m/s, ° | - | - |
| 1787998541 | 21.67° C | 79% | 1015.2 hPa | 0 mm | 0.89 m/s, ° | - | - |
| 1787998481 | 21.11° C | 79% | 1015.1 hPa | 0 mm | 0.45 m/s, ° | - | - |
| 1787998421 | 20.56° C | 80% | 1015.1 hPa | 0 mm | 0.45 m/s, ° | - | - |
* Rain latest hour (hover to see other rain measurements)
** Current wind speed in m/s (hover to see current wind gust speed)